Regional Weather Roundup
Issued by NWS

Home | Current Version | Previous Version | Graphics & Text | Print | Product List | Glossary On
Versions: 1 2 3 4 5 6 7 8 9 10 11 12 13 14 15 16 17 18 19 20 21 22 23 24 25 26 27 28 29 30 31 32 33 34 35 36 37 38 39 40 41 42 43 44 45 46 47 48 49 50
129
ASUS43 KDMX 271306
RWRIA

WEATHER ROUNDUP FOR IOWA
NATIONAL WEATHER SERVICE DES MOINES IA
700 AM CST MON FEB 27 2017

NOTE: "FAIR" INDICATES FEW OR NO CLOUDS BELOW 12,000 FEET WITH NO
SIGNIFICANT WEATHER AND/OR OBSTRUCTIONS TO VISIBILITY.

* - THESE STATIONS ARE NOT NWS STATIONS...THUS NOT UNDER NWS
QUALITY CONTROL.  THEY ALSO DO NOT REPORT WEATHER SUCH
AS PRECIPITATION OR FOG.

IAZ001>003-012>014-020>022-031>034-043>046-271400-
   NORTHWEST IOWA

CITY           SKY/WX    TMP DP  RH WIND       PRES   REMARKS
CARROLL *      CLOUDY    19  19 100 CALM      29.98S
CHEROKEE *     CLEAR      9   7  92 CALM      29.96R
DENISON *      CLEAR     18  16  93 CALM      29.95S
LE MARS *      CLEAR     21  18  86 S7        29.95S WCI  13
SHELDON *      CLEAR     19  19 100 SE6       29.92R WCI  11
SIOUX CITY     CLOUDY    16  13  88 E10       29.95F WCI   4
SPENCER        CLEAR     16  12  84 CALM      29.94F
STORM LAKE *   CLEAR     21  16  79 S14       29.95S WCI   8
$$

IAZ055>058-069>071-079>083-090>094-271400-
   SOUTHWEST IOWA

CITY           SKY/WX    TMP DP  RH WIND       PRES   REMARKS
ATLANTIC *     CLEAR     21  21 100 CALM      29.99S
AUDUBON *      CLEAR     18  16  93 CALM      29.98S
CLARINDA *     CLOUDY    19  19 100 CALM      30.03S
COUNCIL BLFS * CLEAR     25  21  86 SE7       29.97S WCI  17
CRESTON *      FOG       28  28 100 MISG      30.01S VSB<1/4
HARLAN  *      CLEAR     18  18 100 CALM      30.01S
LAMONI         FOG       28  27  96 S7        30.02R VSB 1/4 WCI  21
RED OAK *      CLEAR     21  19  93 MISG      30.00S
SHENANDOAH *   CLEAR     21  21 100 CALM      30.00S
$$

IAZ047>049-059>061-072>074-084-271400-
   CENTRAL IOWA

CITY           SKY/WX    TMP DP  RH WIND       PRES   REMARKS
AMES           CLEAR     21  20  96 CALM      30.02R FOG
ANKENY *         N/A     19  19 100 CALM      30.04R
BOONE *        CLEAR     25  23  93 SE6       29.99S WCI  18
CHARITON *     CLEAR     27  27 100 S6        30.02F FOG     WCI  20
DES MOINES     CLEAR     27  21  78 S6        30.02R WCI  20
GRINNELL*      CLEAR     24  21  87 SE5       30.04S WCI  18
KNOXVILLE *    CLEAR     28  27  93 S6        30.02S WCI  22
MARSHALLTOWN   CLEAR     20  18  92 E8        30.02F WCI  10
NEWTON *       CLEAR     25  23  93 SE7       30.03R WCI  17
PELLA *        CLEAR     29  27  92 SE3       30.05S
PERRY *          N/A     24  23  96 SE5       30.00F WCI  18
$$

IAZ004>006-015-016-023>025-035-036-271400-
   NORTH CENTRAL IOWA

CITY           SKY/WX    TMP DP  RH WIND       PRES   REMARKS
ALGONA *       CLOUDY    14  14 100 S12       29.97S WCI   0
CLARION *      CLEAR     19  19 100 SE9       30.00R WCI   9
ESTHERVILLE    CLEAR     14  13  95 S9        29.94F WCI   2
FORT DODGE *   CLEAR     12   9  85 CALM      29.99F
MASON CITY     CLOUDY     9   7  92 S6        30.01R FOG     WCI  -1
FOREST CITY *  FOG        5   1  85 CALM      29.99S VSB 1/4
WEBSTER CITY * CLEAR     19  18  93 SE8       29.98S WCI   9
IOWA FALLS *     N/A     23  21  93 SE3       30.02R
$$

IAZ007>011-017>019-026>030-037>042-050>054-066-271400-
   NORTHEAST IOWA

CITY           SKY/WX    TMP DP  RH WIND       PRES   REMARKS
CEDAR RAPIDS   CLOUDY    28  26  92 E3        30.05R
CHARLES CITY * CLEAR     23  23 100 SE6       30.02S WCI  16
CLINTON *      CLOUDY    29  28  96 SE5       30.10R WCI  24
DECORAH *      CLEAR     23  21  93 S7        30.02F WCI  15
DUBUQUE        PTCLDY    28  23  81 SE3       30.07R
MONTICELLO *   CLOUDY    25  23  93 CALM      30.07S
OELWEIN *      CLEAR     23  23 100 SE9       30.03F WCI  13
WATERLOO       CLEAR     21  19  92 SE6       30.03F WCI  13
$$

IAZ064-065-067-068-078-271400-
   EAST CENTRAL IOWA

CITY           SKY/WX    TMP DP  RH WIND       PRES   REMARKS
DAVENPORT      PTCLDY    26  24  92 S6        30.09R WCI  19
IOWA CITY      CLOUDY    31  28  89 SE5       30.08S WCI  26
MUSCATINE *    CLEAR     25  23  93 CALM      30.09S
QUAD CITIES    PTCLDY    30  27  88 SE3       30.09S
$$

IAZ062-063-075>077-085>089-095>099-271400-
   SOUTHEAST IOWA

CITY           SKY/WX    TMP DP  RH WIND       PRES   REMARKS
BURLINGTON     CLEAR     29  28  96 CALM      30.09R FOG
FAIRFIELD *    CLEAR     28  28 100 S5        30.06R WCI  23
KEOKUK *       FOG       30  30 100 E5        30.08S VSB<1/4 WCI  25
CENTERVILLE *  FOG       28  28 100 CALM      30.06R VSB 3/4
OTTUMWA        FOG       30  30 100 S7        30.05R VSB<1/4 WCI  23
WASHINGTON *   CLEAR     28  28 100 S5        30.08R WCI  23
$$

ABBREVIATIONS USED IN REMARKS
   TC - TEMPERATURES IN CELSIUS
  WCI - WIND CHILL INDEX
   HX - HEAT INDEX
  VSB - VISIBILITY
$$





USA.gov is the U.S. government's official web portal to all federal, state and local government web resources and services.